Regional Weather Roundup
Issued by NWS

Home | Current Version | Previous Version | Graphics & Text | Print | Product List | Glossary On
Versions: 1 2 3 4 5 6 7 8 9 10 11 12 13 14 15 16 17 18 19 20 21 22 23 24 25 26 27 28 29 30 31 32 33 34 35 36 37 38 39 40 41 42 43 44 45 46 47 48 49 50
000
ASUS43 KMPX 230401
RWRMN
WEATHER ROUNDUP FOR MINNESOTA
NATIONAL WEATHER SERVICE TWIN CITIES/CHANHASSEN MN
1100 PM CDT MON AUG 22 2016


NOTE: "FAIR" INDICATES FEW OR NO CLOUDS BELOW 12,000 FEET WITH NO
SIGNIFICANT WEATHER AND/OR OBSTRUCTIONS TO VISIBILITY. N/A MEANS
CURRENT SKY AND/OR WEATHER CONDITIONS ARE NOT AVAILABLE.

MNZ060>063-068>070-230500-
   Twin Cities Metro

CITY           SKY/WX    TMP DP  RH WIND       PRES   REMARKS
TWIN CITIES    CLEAR     75  59  57 S16G24    29.93R
ST PAUL        CLEAR     70  61  73 S10       29.94R
CRYSTAL        CLEAR     74  58  57 S12G24    29.90R
BLAINE         CLEAR     75  61  60 S15G21    29.92R
LAKEVILLE      CLEAR     68  61  77 S10G18    29.95R
EDEN PRAIRIE   CLEAR     74  60  61 S16G25    29.92R
LAKEVILLE      CLEAR     68  61  77 S10G18    29.95R
SOUTH ST PAUL  CLEAR     71  60  67 S7        29.94R
LAKE ELMO      FAIR      70  63  78 S14       29.96R
$$
MNZ001>005-007-008-013>017-022>024-027-028-230500-
   Northwest Minnesota

CITY           SKY/WX    TMP DP  RH WIND       PRES   REMARKS
BEMIDJI        CLEAR     69  66  90 S6        29.78S
HALLOCK        CLEAR     70  66  88 SE9       29.69S
ROSEAU         CLEAR     66  61  82 SE3       29.74S
WARROAD        CLEAR     66  63  88 SE3       29.76R
THIEF RVR FALL CLEAR     68  65  90 SE8       29.74S
CROOKSTON      CLEAR     70  66  88 SE8       29.71S
FOSSTON        CLEAR     70  64  83 SE7       29.75F
DETROIT LAKES  CLEAR     73  66  78 S12       29.78S
MOORHEAD       CLEAR     75  68  78 S14       29.71S
PARK RAPIDS    CLEAR     73  66  78 SE10      29.80S
MAHNOMEN       FAIR      73  67  83 SE9       29.75S
$$
MNZ006-009>011-018-025>026-230500-
   North Central Minnesota

CITY           SKY/WX    TMP DP  RH WIND       PRES   REMARKS
BAUDETTE       CLEAR     68  64  87 S8        29.77R
FLAG ISLAND    CLEAR     73  68  83 CALM      29.75R HAZE
INTL FALLS     CLEAR     66  62  87 VRB3      29.79S
WASKISH        CLEAR     66  63  88 SE3       29.78S
BIG FORK       CLEAR     66  64  94 CALM      29.82S
LONGVILLE      CLEAR     72  66  83 S8        29.82S
GRAND RAPIDS   CLEAR     71  65  81 S10       29.85R
CRANE LAKE     CLEAR     61  59  94 CALM      29.84R
ORR            PTCLDY    66  61  82 CALM      29.81S
COOK           CLEAR     70  64  83 S5        29.85R
WALKER         FAIR      73  66  77 S9        29.80S
$$
MNZ012-019>021-037-230500-
   Northeast Minnesota

CITY           SKY/WX    TMP DP  RH WIND       PRES   REMARKS
DULUTH         CLEAR     71  61  70 SW12      29.89R
ELY            CLEAR     70  63  78 SW5       29.86S
HIBBING        CLEAR     68  63  84 S7        29.85S
EVELETH        CLEAR     72  63  72 S7        29.88R
DULUTH HARBOR  CLEAR     73  64  73 SW7       29.87S
TWO HARBORS    CLEAR     70  64  83 CALM      29.87S
SILVER BAY     MOCLDY    70  63  78 CALM      29.87S
GRAND MARAIS     N/A     68  64  87 CALM      29.87R
G MARAIS ARPRT MOCLDY    66  57  72 S7        29.92S
$$
MNZ029>031-032-039>041-046>048-054>057-064-230500-
   West Central Minnesota

CITY           SKY/WX    TMP DP  RH WIND       PRES   REMARKS
FERGUS FALLS     N/A     73  64  73 S13       29.77S
WHEATON        CLEAR     75  66  73 SE13G18   29.75S
MORRIS         CLOUDY    72  64  78 S14       29.79R
ALEXANDRIA     CLOUDY    74  63  68 S22G32    29.83R
ELBOW LAKE     FAIR      72  66  80 S18G24    29.78R
GLENWOOD       CLEAR     72  63  73 S15       29.85R
APPLETON       CLOUDY    75  63  64 S12G17    29.80R
BENSON         CLOUDY    72  63  73 S13G18    29.82S
ORTONVILLE     CLOUDY    75  63  64 S10       29.78S
MADISON        CLOUDY    73  61  64 S14       29.80S
WILLMAR        FAIR      72  64  78 S9        29.88S
$$
MNZ033>034-036-042>043-049>051-058-059-230500-
   Central Minnesota

CITY           SKY/WX    TMP DP  RH WIND       PRES   REMARKS
ST CLOUD       CLEAR     72  63  73 S16G31    29.88R
SAUK CENTRE    FAIR      71  63  75 S14       29.85R
PAYNESVILLE    CLEAR     71  61  69 S13G22    29.88R
AITKIN         CLEAR     75  61  60 S9G16     29.84S
PINE RIVER     CLEAR     72  66  83 S6        29.87R
BRAINERD       CLEAR     70  64  81 S6        29.85R
STAPLES        CLEAR     73  63  68 S13G21    29.82R
LONG PRAIRIE   FAIR      72  63  73 SE12G17   29.85R
LITTLE FALLS   CLEAR     72  59  64 S10       29.86S
LITCHFIELD     CLEAR     72  64  78 S7        29.89S
BUFFALO        CLEAR     73  60  65 S16G24    29.91R
MAPLE LAKE     CLEAR     73  63  72 S8G20     29.90S
HUTCHINSON     CLEAR     71  64  78 S10       29.92S
$$
MNZ037-044-045-052-053-230500-
   East Central Minnesota

CITY           SKY/WX    TMP DP  RH WIND       PRES   REMARKS
PRINCETON      CLEAR     73  63  68 S14       29.89S
MORA           CLEAR     70  59  68 S10       29.91R
CAMBRIDGE      CLEAR     75  61  60 S13       29.89R
RUSH CITY      PTCLDY    70  60  70 S7        29.91R
MOOSE LAKE     CLEAR     68  61  77 S6        29.87R
HINCKLEY       FAIR      68  61  77 S6        29.90R
CLOQUET        CLEAR     70  61  73 S9        29.89R
MCGREGOR       CLEAR     70  63  78 S9        29.87S
$$
MNZ071>073-080-081-089-090-097-098-230500-
   Southwest Minnesota

CITY           SKY/WX    TMP DP  RH WIND       PRES   REMARKS
MONTEVIDEO     CLOUDY    72  63  73 SW10G18   29.85S
GRANITE FALLS  CLOUDY    73  64  73 S14       29.87S
CANBY          CLOUDY    76  61  59 SW16G30   29.81S
MARSHALL       CLOUDY    73  62  68 S23G30    29.84R
REDWOOD FALLS  CLEAR     72  61  68 S15       29.88S
OLIVIA         PTCLDY    70  61  73 S9G16     29.88S
PIPESTONE      PTCLDY    72  61  68 S16G22    29.90S
WINDOM         CLEAR     72  59  64 S15G26    29.94R
WORTHINGTON    CLOUDY    69  61  75 S17       29.94R
JACKSON        CLEAR     70  57  64 S16       29.97R
TRACY          CLOUDY    72  63  73 S17G24    29.88S
$$
MNZ065>067-074>077-082>085-091>093-230500-
   South Central Minnesota

CITY           SKY/WX    TMP DP  RH WIND       PRES   REMARKS
MANKATO        CLEAR     70  59  68 S16G22    29.95S
NEW ULM          N/A     70  61  73 S15       29.92S
ST JAMES       CLEAR     64  57  77 S14G21    29.95R
GLENCOE        CLEAR     71  64  78 S13G20    29.91S
FARIBAULT      CLEAR     68  63  83 S8        29.97S
OWATONNA       CLEAR     70  61  73 S13       29.98S
WASECA         CLEAR     64  59  82 S13       29.99S
ALBERT LEA     CLEAR     70  61  73 S13G20    30.00F
$$
MNZ078>079-086>088-094>096-230500-
   Southeast Minnesota

CITY           SKY/WX    TMP DP  RH WIND       PRES   REMARKS
ROCHESTER      CLEAR     68  61  78 S16       30.02S
RED WING       CLEAR     73  59  60 S7        29.97R
DODGE CENTER   CLEAR     66  61  82 S13G18    30.01R
WINONA         CLEAR     72  61  68 S8        30.02R
AUSTIN         CLEAR     64  61  88 S8        30.02S
PRESTON        CLEAR     66  59  77 S15       30.04S
$$
ABBREVIATIONS USED IN REMARKS
   TC - TEMPERATURES IN CELSIUS
  WCI - WIND CHILL INDEX
   HX - HEAT INDEX
  VSB - VISIBILITY
$$




USA.gov is the U.S. government's official web portal to all federal, state and local government web resources and services.